Showing default

CATSAT, 60246

Orbit data source: Space-Track

CATSAT, 60246 is a payload satellite owned by U. Arizona (US) in SSO that was launched on Thu, 04 Jul 2024 UTC via an FIREFLY ALPHA launch vehicle from the Air Force Western Test Range (AFWTR). Payload-class satellites include a variety of spacecraft equipped with specific instruments for various scientific and technological missions. These include communications satellites like Starlink; space stations such as the ISS; scientific satellites like the Hubble; Earth observation satellites from companies like Planet Labs, Umbra, and HawkEye 360; GPS; miniature CubeSats for education and research; and military/defense satellites.

Loading next visibility...
Identifier
60246, 2024-125J
Orbit
SSO
Country
Flag of USUS
Related business
Manufacturer
U. Arizona
Mission
Operational Amateur Technology
Bus & Motor
CUBESAT 6U, Unknown motor
Mass
12 kg wet, ~12 kg dry
Launch date (UTC)
2024-07-04 (1 year ago)
Launch vehicle
FIREFLY ALPHA
Launch site
Air Force Western Test Range (AFWTR)
Object type
Payload
Rocket body
Debris
Shape & HBR
Box + Inf Sphere + 1 Pan, 0.4 m
Radar Cross Section
0.050 m², Medium (>0.1 m² and < 1m²)

Expand to show TLE details & history
Last TLE update: 1 day ago

TLE from 1 day ago
0 CATSAT
1 60246U 24125J   25348.55840608  .00032645  00000-0  78313-3 0  9995
2 60246  97.2314 195.9232 0034131 137.7619 222.6267 15.40697234 78804
Epoch: 2025-12-14T13:24Z
TLE epoch observation values (Epoch: 2025-12-14T13:24:06.285Z)
Latitude
0.00004°
Longitude
-88.57259°
Altitude
464.347 km
Speed
7.625 km/s
True Right ascension
13h 03m 41s
True Declination
0° 00' 00"
Sunlit
Object was in daylight at epoch
Visualization orbit readout
Latitude
Unknown
Longitude
Unknown
Altitude
Unknown
Speed
Unknown
Apparent Right ascension
Unknown
Apparent Declination
Unknown
Sunlit
N/A
Visualization observer readout
Local Sidereal Time
13:22:48
Azimuth
Unknown
Elevation
Unknown
Doppler factor
Unknown
Orbital elements
Apogee altitude
464.255 km
Perigee altitude
417.707 km
Semi-major axis
6,819.118 km
Eccentricity
0.00341
Inclination
97.2314°
RAAN
195.9232°
Arg. of periapsis
137.7619°
True anomaly
222.36266°
Mean anomaly
222.6267°
Eccentric anomaly
222.4946°
Mean motion
3.85435 °/min
Orbital period
93.4 mins
BSTAR
0.00078313
Loading maneuver chart data...
Computing Atmospheric mass density...
Loading historical data...
Loading historical data...
Loading historical data...
Loading historical data...
Loading historical data...
Loading historical data...
Loading historical data...

Documentation

Showing up to 5 results
|